User: anonymous   Login
Location: Mentone
(34.5413°N, 85.5351°W)
Time: 06:41:49
(UTC-05:00)
Language:

ADEOS Rocket - Orbit

View from above orbital plane
View from above orbital plane
View from above satellite
View from above satellite

Ground track
Ground track

The orbit data is extracted from the following two-line orbital elements,

1 24279U 96046C   15146.15371037 -.00000024  00000-0  13390-4 0  9990
2 24279 098.6994 175.3662 0300959 050.3821 354.0145 13.47026020922860
Epoch (UTC): 26 May 2015 03:41:20
Eccentricity: 0.0300959
inclination: 98.6994°
perigee height: 858 km
apogee height: 1308 km
right ascension of ascending node: 175.3662°
argument of perigee: 50.3821°
revolutions per day: 13.47026020
mean anomaly at epoch: 354.0145°
orbit number at epoch: 92286

The dashed part of the orbit path shows where the satellite is in the earth's shadow,  

DLR